Location: Newport
(44.6370°N, 124.0520°W)
Time: 15:59:18
(UTC-07:00)

N. Korean satellite - Pass Details

Date: 15 October 2017
Orbit: 459 x 517 km, 97.2° (Epoch: 22 October)

Event Time Altitude Azimuth Distance (km) Brightness Sun altitude
Rises 06:58:33 0° 36° (NE) 2,493 10.6 -6.7°
Reaches altitude 10° 07:02:15 10° 77° (ENE) 1,614 10.6 -6.1°
Maximum altitude 07:02:59 11° 90° (E) 1,581 11.0 -5.9°
Drops below altitude 10° 07:03:44 10° 102° (ESE) 1,614 11.1 -5.8°
Sets 07:07:24 0° 144° (SE) 2,492 10.9 -5.2°
